{"data":{"norad_id":61960,"epoch":"2026-09-21T09:25:20.950176Z","epoch_age_seconds":108475,"freshness":"FRESH","line1":"1 61960U 24210B   26264.39260359  .00014439  00000+0  53322-3 0  9996","line2":"2 61960  42.9980 154.2993 0000812 289.1524  70.9240 15.27578492104716","mean_motion":15.27578492,"eccentricity":8.12e-5,"inclination_deg":42.998,"raan_deg":154.2993,"arg_perigee_deg":289.1524,"mean_anomaly_deg":70.924,"bstar":0.00053322,"rev_number":10471,"period_min":94.266841772213,"perigee_km":482.49648286021,"apogee_km":483.61074021552,"semimajor_km":6861.1906115379,"source":"CELESTRAK","updated_at":"2026-09-22T09:00:49.458064Z"}}